Regional Weather Roundup
Issued by NWS

Home | Current Version | Previous Version | Text Only | Print | Product List | Glossary On
Versions: 1 2 3 4 5 6 7 8 9 10 11 12 13 14 15 16 17 18 19 20 21 22 23 24 25 26 27 28 29 30 31 32 33 34 35 36 37 38 39 40 41 42 43 44 45 46 47 48 49 50
000
ASUS45 KPSR 080710
RWRAZ

ARIZONA HOURLY REGIONAL WEATHER ROUNDUP
NATIONAL WEATHER SERVICE PHOENIX AZ
1200 AM MST WED JUL 08 2015

NOTE: FAIR INDICATES FEW OR NO CLOUDS BELOW 12,000 FEET WITH NO
SIGNIFICANT WEATHER AND/OR OBSTRUCTIONS TO VISIBILITY.

AZZ001>003-036-080800-
NORTHWEST ARIZONA

CITY           SKY/WX    TMP DP  RH WIND       PRES   REMARKS
BULLHEAD CITY  CLEAR     91  55  29 CALM      29.68S
KINGMAN        MOCLDY    82  42  24 S13       29.90F
$$

AZZ004>008-015-016-018-080800-
NORTH CENTRAL ARIZONA

CITY           SKY/WX    TMP DP  RH WIND       PRES   REMARKS
GRAND CANYON   PTCLDY    54  45  71 CALM      30.18S
WILLIAMS       CLEAR     55  50  82 SE8       30.24F
PRESCOTT       CLEAR     63  55  75 CALM      30.06F
FLAGSTAFF      CLEAR     52  51  97 CALM      30.21F
PAYSON         CLEAR     68  46  45 CALM      30.09S
PAGE           PTCLDY    72  54  53 S3        30.00S
$$

AZZ009>014-017-080800-
NORTHEAST ARIZONA

CITY           SKY/WX    TMP DP  RH WIND       PRES   REMARKS
WINSLOW        PTCLDY    64  51  62 E5        30.06F
SAINT JOHNS    CLEAR     62  49  62 S6        30.12F
WINDOW ROCK    PTCLDY    56  50  80 VRB3      30.19S
SHOW LOW       CLEAR     57  45  62 S7        30.18F
$$

AZZ023-080800-
GREATER PHOENIX AREA

CITY           SKY/WX    TMP DP  RH WIND       PRES   REMARKS
PHOENIX        CLEAR     96  43  16 NW7G18    29.73S
BUCKEYE        CLEAR     90  46  22 W3        29.75S
LUKE AFB       CLEAR     93  45  18 SW14      29.72S
DEER VALLEY    CLEAR     89  52  28 W5        29.77R
SCOTTSDALE     CLEAR     94  41  16 W7        29.78S
MESA-GATEWAY   PTCLDY    91  50  24 W8        29.78S
$$

AZZ027-028-080800-
SOUTHWEST MARICOPA COUNTY AND PINAL COUNTY

CITY           SKY/WX    TMP DP  RH WIND       PRES   REMARKS
CASA GRANDE    CLEAR     90  45  20 CALM      29.77S
GILA BEND      FAIR      93  39  15 SW12      29.72S
$$

AZZ503-504-507>509-080800-
SOUTHEAST ARIZONA

CITY           SKY/WX    TMP DP  RH WIND       PRES   REMARKS
TUCSON         CLEAR     86  54  33 SE5       29.91R
DAVIS-MONTHAN  CLEAR     84  57  39 S1        29.90R
NOGALES        CLEAR     72  58  61 E3        30.01F
SIERRA VISTA   CLEAR     75  58  56 W12       30.06F
DOUGLAS        CLEAR     71  62  73 NE8       30.01F
SAFFORD        CLEAR     77  58  51 E6        29.91S
$$

AZZ020-021-025-026-031-080800-
SOUTHWEST ARIZONA

CITY           SKY/WX    TMP DP  RH WIND       PRES   REMARKS
YUMA           CLEAR     90  43  19 W5        29.70S
$$

CAZ031-033-041-043-047-048-061-080800-
SOUTHERN CALIFORNIA

CITY           SKY/WX    TMP DP  RH WIND       PRES   REMARKS
DOWNTOWN L.A.  CLOUDY    67  60  78 VRB3      29.90S
L.A. AIRPORT   PTCLDY    66  60  81 S9        29.90F
SAN DIEGO      CLOUDY    67  57  70 VRB3      29.94F
BURBANK        PTCLDY    66  59  78 SE9       29.90S
ONTARIO        MOCLDY    64  59  83 W7        29.92F
RIVERSIDE      CLEAR     65  59  81 VRB3      29.93S
PALM SPRINGS   CLEAR     84  53  34 NW13      29.71F
EL CENTRO NAS  CLEAR     87  38  17 W21       29.70S
IMPERIAL       CLEAR     86  42  21 W17G25    29.67F
BLYTHE         CLEAR     92  41  17 S13       29.68S
NEEDLES        CLEAR     97  38  13 W15       29.68F
$$

NVZ020-UTZ003-080800-
SOUTHERN NEVADA-UTAH

CITY           SKY/WX    TMP DP  RH WIND       PRES   REMARKS
LAS VEGAS      PTCLDY    89  51  27 S13       29.74S
SALT LAKE CITY MOCLDY    71  53  52 S6        29.97R
$$

NMZ009-TXZ055-080800-
NEW MEXICO-WEST TEXAS

CITY           SKY/WX    TMP DP  RH WIND       PRES   REMARKS
ALBUQUERQUE    CLOUDY    62  53  72 SE13      30.15F
EL PASO        PTCLDY    70  63  78 CALM      30.03S
$$


........................KEY........................
SKY/WX - SKY CONDITION/WEATHER
TMP    - TEMPERATURE IN FAHRENHEIT
DP     - DEW POINT IN FAHRENHEIT
RH     - RELATIVE HUMIDITY IN PERCENT
WIND   - DIRECTION AND SPEED IN MILES PER HOUR (MPH)
VRB    - VARIABLE WIND DIRECTION
PRES   - MEAN SEA LEVEL PRESSURE IN INCHES OF MERCURY
         F - FALLING PRESSURE   R - RISING PRESSURE
         S - STEADY PRESSURE
VSB    - VISIBILITY IN MILES
HX     - HEAT INDEX IN FAHRENHEIT
WCI    - WIND CHILL INDEX IN FAHRENHEIT
TC     - TEMPERATURE IN CELSIUS WHICH IS ALSO KNOWN AS
         TEMPERATURE IN CENTIGRADE
AFB    - AIR FORCE BASE
         LUKE AFB IS LUKE AIR FORCE BASE
         DAVIS-MONTHAN IS DAVIS-MONTHAN AIR FORCE BASE
NAS    - NAVAL AIR STATION
         EL CENTRO NAS IS EL CENTRO NAVAL AIR STATION
N/A    - NOT AVAILABLE




USA.gov is the U.S. government's official web portal to all federal, state and local government web resources and services.